DW3485 Weather Reports


Display with metric or nautical units.
time (UTC)temp
F
wind
direction
speed
MPH
gust
MPH
rain 1hr
in
rain 24hr
in
rain mn
in
humidity
%
barometer
mb
20260502202549 53 279 1.0 8.0 0.00 0.01 0.01 71 1009.2
20260502202047 54 0 1.0 8.0 0.00 0.01 0.01 69 1009.1
20260502201556 54 0 2.0 8.0 0.00 0.01 0.01 69 1009.1
20260502201047 54 213 1.0 8.0 0.00 0.01 0.01 69 1009.1
20260502200547 55 208 2.0 7.0 0.00 0.01 0.01 69 1009.2
20260502200057 55 165 1.0 7.0 0.00 0.01 0.01 65 1009.2
20260502195548 55 121 2.0 9.0 0.00 0.01 0.01 67 1009.2
20260502195052 55 0 1.0 9.0 0.00 0.01 0.01 66 1009.1
20260502194558 56 194 1.0 6.0 0.00 0.01 0.01 67 1009.1
20260502194053 56 161 2.0 6.0 0.00 0.01 0.01 65 1009.1
20260502193548 55 205 2.0 9.0 0.00 0.01 0.01 65 1009.3
20260502193102 54 0 3.0 9.0 0.00 0.01 0.01 66 1009.5
20260502192549 55 192 4.0 9.0 0.00 0.01 0.01 66 1009.5
20260502192048 55 234 4.0 8.0 0.00 0.01 0.01 66 1009.6
20260502191605 55 216 3.0 7.0 0.00 0.01 0.01 66 1009.7
20260502191048 55 0 3.0 8.0 0.00 0.01 0.01 65 1009.7
20260502190550 55 252 3.0 8.0 0.00 0.01 0.01 66 1009.7
20260502190107 55 280 2.0 8.0 0.00 0.01 0.01 65 1009.9
20260502185547 55 182 2.0 8.0 0.00 0.01 0.01 60 1009.9
20260502185047 55 219 3.0 9.0 0.00 0.01 0.01 62 1009.8
20260502184601 55 180 3.0 11.0 0.00 0.01 0.01 62 1009.9
20260502184048 55 208 5.0 11.0 0.00 0.01 0.01 60 1009.8
20260502183549 55 244 4.0 13.0 0.00 0.01 0.01 62 1009.9
20260502183110 54 240 5.0 13.0 0.00 0.01 0.01 61 1009.9
20260502182547 54 263 7.0 13.0 0.00 0.01 0.01 59 1010.0
20260502182047 54 218 4.0 13.0 0.00 0.01 0.01 55 1010.0
20260502181555 53 262 6.0 13.0 0.00 0.01 0.01 60 1010.0
20260502181048 54 241 3.0 11.0 0.00 0.01 0.01 63 1009.9
20260502180552 54 184 4.0 11.0 0.00 0.01 0.01 67 1010.1
20260502164048 52 243 2.0 6.0 0.00 0.00 0.00 69 1010.4
20260502163549 52 253 0.0 8.0 0.00 0.00 0.00 72 1010.6
20260502163057 52 223 1.0 8.0 0.00 0.00 0.00 73 1010.6
20260502162548 52 234 3.0 8.0 0.00 0.00 0.00 72 1010.7
20260502162048 52 217 3.0 8.0 0.00 0.00 0.00 71 1010.6
20260502161620 52 0 0.0 8.0 0.00 0.00 0.00 69 1010.7
20260502161052 52 225 3.0 8.0 0.00 0.00 0.00 67 1010.8
20260502160548 53 254 3.0 10.0 0.00 0.00 0.00 64 1010.7
20260502152053 52 186 1.0 4.0 0.00 0.00 0.00 76 1010.8
20260502151605 52 245 1.0 3.0 0.00 0.00 0.00 74 1010.8
20260502151049 52 190 0.0 3.0 0.00 0.00 0.00 82 1010.8
20260502150548 52 0 0.0 0.0 0.00 0.00 0.00 81 1010.9
20260502130547 48 0 0.0 2.0 0.00 0.00 0.00 85 1011.4
20260502123549 49 305 2.0 6.0 0.00 0.00 0.00 81 1011.7
20260502123051 49 266 2.0 6.0 0.00 0.00 0.00 82 1011.9
20260502122549 49 0 2.0 8.0 0.00 0.00 0.00 81 1012.0
20260502122048 49 231 4.0 10.0 0.00 0.00 0.00 81 1012.1
20260502121554 49 306 5.0 10.0 0.00 0.00 0.00 82 1012.0
20260502121050 49 272 4.0 7.0 0.00 0.00 0.00 81 1012.1
20260502120549 49 306 3.0 7.0 0.00 0.00 0.00 78 1011.9
20260502115548 49 253 3.0 5.0 0.00 0.00 0.00 83 1011.5
20260502115050 48 217 2.0 5.0 0.00 0.00 0.00 82 1011.2
20260502114553 48 206 1.0 7.0 0.00 0.00 0.00 84 1011.2
20260502114050 48 226 2.0 7.0 0.00 0.00 0.00 83 1011.2
20260502113546 48 248 3.0 5.0 0.00 0.00 0.00 84 1011.3
20260502113052 48 234 4.0 5.0 0.00 0.00 0.00 80 1011.3
20260502112549 48 0 0.0 0.0 0.00 0.00 0.00 83 1011.0
20260502112049 47 0 0.0 0.0 0.00 0.00 0.00 84 1010.8
20260502111559 47 0 0.0 0.0 0.00 0.00 0.00 83 1010.7
20260502111047 47 0 0.0 0.0 0.00 0.00 0.00 85 1010.9
20260502110550 47 0 0.0 0.0 0.00 0.00 0.00 84 1010.8
20260502110056 47 0 0.0 0.0 0.00 0.00 0.00 84 1010.9
20260502105550 47 0 0.0 2.0 0.00 0.00 0.00 85 1011.0
20260502105049 47 0 0.0 2.0 0.00 0.00 0.00 84 1011.0
20260502104550 46 254 0.0 2.0 0.00 0.00 0.00 84 1011.0
20260502104050 46 0 0.0 2.0 0.00 0.00 0.00 83 1010.8
20260502103552 46 0 0.0 3.0 0.00 0.00 0.00 84 1010.8
20260502103051 46 254 0.0 3.0 0.00 0.00 0.00 84 1010.8
20260502102548 47 254 2.0 3.0 0.00 0.00 0.00 86 1011.0
20260502102048 46 253 0.0 2.0 0.00 0.00 0.00 82 1011.0
20260502101555 46 0 0.0 2.0 0.00 0.00 0.00 84 1010.7
20260502101046 46 0 0.0 3.0 0.00 0.00 0.00 85 1010.6
20260502100548 46 0 1.0 3.0 0.00 0.00 0.00 85 1010.8
20260502091050 47 342 1.0 3.0 0.00 0.00 0.00 84 1010.6
20260502090550 46 0 1.0 3.0 0.00 0.00 0.00 83 1010.4
20260502071052 49 0 0.0 3.0 0.00 0.00 0.00 73 1010.3
20260502070549 49 0 0.0 3.0 0.00 0.00 0.00 73 1010.4
20260502070107 49 0 1.0 2.0 0.00 0.00 0.00 74 1010.4
20260502065549 49 216 0.0 3.0 0.00 0.00 0.00 69 1010.4
20260502065048 49 215 0.0 5.0 0.00 0.00 0.00 72 1010.4
20260502064554 49 252 1.0 6.0 0.00 0.00 0.00 72 1010.4
20260502064048 50 221 2.0 6.0 0.00 0.00 0.00 73 1010.5
20260502063548 50 244 2.0 4.0 0.00 0.00 0.00 73 1010.6
20260502063057 49 202 2.0 4.0 0.00 0.00 0.00 72 1010.7
20260502062549 49 241 2.0 4.0 0.00 0.00 0.00 72 1010.8
20260502062048 49 238 2.0 5.0 0.00 0.00 0.00 72 1010.8
20260502061550 49 238 2.0 5.0 0.00 0.00 0.00 72 1010.7
20260502061048 49 236 2.0 4.0 0.00 0.00 0.00 72 1010.7
20260502060550 49 211 2.0 4.0 0.00 0.00 0.00 71 1010.7
20260502060054 48 206 1.0 4.0 0.00 0.00 0.00 71 1010.7
20260502055549 48 215 2.0 4.0 0.00 0.00 0.00 71 1010.7
20260502055047 48 207 2.0 4.0 0.00 0.00 0.00 69 1010.7
20260502054556 48 207 1.0 4.0 0.00 0.00 0.00 71 1010.7
20260502054048 48 0 0.0 0.0 0.00 0.00 0.00 70 1010.7
20260502053618 48 0 0.0 0.0 0.00 0.00 0.00 70 1010.8
20260502053109 48 0 0.0 0.0 0.00 0.00 0.00 70 1010.7
20260502052548 48 0 0.0 0.0 0.00 0.00 0.00 70 1010.8
20260502052048 49 0 0.0 3.0 0.00 0.00 0.00 70 1010.8
20260502051607 49 0 0.0 3.0 0.00 0.00 0.00 67 1010.9
20260502051048 49 209 1.0 4.0 0.00 0.00 0.00 69 1010.8
20260502050550 49 210 2.0 4.0 0.00 0.00 0.00 69 1010.8
20260502050057 49 217 2.0 4.0 0.00 0.00 0.00 69 1010.9
20260502045548 49 229 1.0 3.0 0.00 0.00 0.00 68 1010.8
20260502045050 49 229 1.0 3.0 0.00 0.00 0.00 68 1010.9
20260502044557 49 240 0.0 3.0 0.00 0.00 0.00 69 1010.8
20260502044050 49 0 0.0 0.0 0.00 0.00 0.00 68 1010.9
20260502043548 49 0 0.0 0.0 0.00 0.00 0.00 69 1010.9
20260502043109 49 0 0.0 0.0 0.00 0.00 0.00 68 1010.9
20260502042551 49 0 0.0 0.0 0.00 0.00 0.00 69 1011.0
20260502042048 49 0 0.0 0.0 0.00 0.00 0.00 70 1011.0
20260502041621 49 0 0.0 0.0 0.00 0.00 0.00 69 1011.0
20260502041048 49 0 0.0 0.0 0.00 0.00 0.00 67 1011.0
20260502040548 49 0 0.0 0.0 0.00 0.00 0.00 66 1011.0
20260502040054 49 0 0.0 0.0 0.00 0.00 0.00 66 1011.1
20260502035548 49 0 0.0 0.0 0.00 0.00 0.00 66 1011.1
20260502035048 49 0 0.0 0.0 0.00 0.00 0.00 65 1011.0
20260502034556 49 0 0.0 0.0 0.00 0.00 0.00 65 1011.1
20260502034049 49 0 0.0 0.0 0.00 0.00 0.00 65 1011.0
20260502033549 50 0 0.0 0.0 0.00 0.00 0.00 66 1011.1
20260502033103 50 0 0.0 0.0 0.00 0.00 0.00 67 1011.0
20260502032548 50 0 0.0 0.0 0.00 0.00 0.00 62 1011.0
20260502032048 50 0 0.0 0.0 0.00 0.00 0.00 66 1011.1
20260502031554 50 0 0.0 0.0 0.00 0.00 0.00 68 1011.2
20260502031051 50 0 0.0 0.0 0.00 0.00 0.00 65 1011.2
20260502030548 50 0 0.0 0.0 0.00 0.00 0.00 68 1011.1
20260502030057 50 0 0.0 0.0 0.00 0.00 0.00 63 1011.1
20260502025548 50 0 0.0 0.0 0.00 0.00 0.00 65 1011.0
20260502025048 50 0 0.0 0.0 0.00 0.00 0.00 63 1011.0
20260502024554 50 0 0.0 0.0 0.00 0.00 0.00 66 1011.0
20260502024048 50 0 0.0 0.0 0.00 0.00 0.00 66 1010.9
20260502023550 49 0 0.0 0.0 0.00 0.00 0.00 63 1011.0
20260502023058 48 0 0.0 0.0 0.00 0.00 0.00 67 1011.0
20260502022550 48 0 0.0 0.0 0.00 0.00 0.00 69 1011.0
20260502022052 48 0 0.0 0.0 0.00 0.00 0.00 69 1011.1
20260502021553 48 0 0.0 0.0 0.00 0.00 0.00 67 1011.1
20260502021048 48 0 0.0 2.0 0.00 0.00 0.00 66 1011.1
20260502020548 48 0 0.0 3.0 0.00 0.00 0.00 68 1011.1
20260502020055 48 0 1.0 3.0 0.00 0.00 0.00 67 1011.0
20260502015547 48 213 0.0 3.0 0.00 0.00 0.00 64 1011.0
20260502015047 48 213 1.0 4.0 0.00 0.00 0.00 61 1011.0
20260502014554 48 0 1.0 7.0 0.00 0.00 0.00 61 1010.9
20260502014047 48 213 2.0 7.0 0.00 0.00 0.00 61 1010.8
20260502013549 48 215 3.0 7.0 0.00 0.00 0.00 65 1010.8
20260502013056 48 0 0.0 0.0 0.00 0.00 0.00 60 1010.6
20260502012548 49 0 0.0 0.0 0.00 0.00 0.00 58 1010.6
20260502012049 49 0 0.0 0.0 0.00 0.00 0.00 56 1010.6
20260502011600 50 0 0.0 0.0 0.00 0.00 0.00 59 1010.5
20260502011050 50 0 0.0 0.0 0.00 0.00 0.00 62 1010.5
20260502010548 50 0 0.0 1.0 0.00 0.00 0.00 61 1010.5
20260502005548 51 0 0.0 2.0 0.00 0.00 0.00 61 1010.4
20260502005049 51 5 1.0 2.0 0.00 0.00 0.00 60 1010.3
20260502004553 52 0 0.0 0.0 0.00 0.00 0.00 57 1010.2
20260502004048 52 0 0.0 0.0 0.00 0.00 0.00 51 1010.2
20260502003551 52 0 0.0 0.0 0.00 0.00 0.00 54 1010.2
20260502003052 52 0 0.0 0.0 0.00 0.00 0.00 57 1010.1
20260502002550 53 0 0.0 0.0 0.00 0.00 0.00 54 1009.9
20260502002050 53 0 0.0 0.0 0.00 0.00 0.00 55 1009.9
20260502001602 53 0 0.0 3.0 0.00 0.00 0.00 55 1009.8
20260502001048 54 0 0.0 4.0 0.00 0.00 0.00 50 1009.7
20260502000548 55 5 1.0 4.0 0.00 0.00 0.00 53 1009.6
20260502000056 55 5 2.0 4.0 0.00 0.00 0.00 53 1009.5
20260501235552 56 352 1.0 4.0 0.00 0.00 0.00 54 1009.5
20260501235048 58 0 0.0 3.0 0.00 0.00 0.00 45 1009.5
20260501234556 58 254 1.0 3.0 0.00 0.00 0.00 51 1009.5
20260501234049 58 0 1.0 2.0 0.00 0.00 0.00 53 1009.4
20260501233547 59 0 1.0 4.0 0.00 0.00 0.00 36 1009.3
20260501233106 59 0 1.0 4.0 0.00 0.00 0.00 38 1009.2
20260501232548 59 0 2.0 4.0 0.00 0.00 0.00 39 1009.2
20260501232048 60 0 1.0 4.0 0.00 0.00 0.00 41 1009.1
20260501231626 60 302 2.0 10.0 0.00 0.00 0.00 37 1009.1
20260501231049 60 265 3.0 10.0 0.00 0.00 0.00 38 1008.9
20260501230548 60 290 2.0 7.0 0.00 0.00 0.00 39 1009.0
20260501230052 60 319 3.0 11.0 0.00 0.00 0.00 34 1009.0
20260501225548 60 325 4.0 11.0 0.00 0.00 0.00 39 1008.9
20260501225048 60 331 4.0 10.0 0.00 0.00 0.00 38 1008.8
20260501224551 60 319 4.0 11.0 0.00 0.00 0.00 35 1008.8
20260501224049 60 343 6.0 11.0 0.00 0.00 0.00 36 1008.8
20260501223547 60 262 2.0 12.0 0.00 0.00 0.00 36 1008.9
20260501223119 60 349 6.0 12.0 0.00 0.00 0.00 33 1008.8
20260501222548 60 352 4.0 14.0 0.00 0.00 0.00 34 1008.7
20260501222049 61 329 8.0 14.0 0.00 0.00 0.00 38 1008.9
20260501221551 60 335 4.0 15.0 0.00 0.00 0.00 34 1008.8
20260501221048 60 304 6.0 15.0 0.00 0.00 0.00 37 1008.8
20260501220548 60 330 6.0 13.0 0.00 0.00 0.00 35 1008.8
20260501220051 61 309 5.0 13.0 0.00 0.00 0.00 36 1008.6
20260501215548 61 311 7.0 13.0 0.00 0.00 0.00 31 1008.6
20260501215048 61 296 7.0 18.0 0.00 0.00 0.00 34 1008.6
20260501214549 61 252 6.0 18.0 0.00 0.00 0.00 34 1008.5
20260501214048 61 341 6.0 18.0 0.00 0.00 0.00 41 1008.5
20260501213547 61 336 9.0 18.0 0.00 0.00 0.00 36 1008.4
20260501213052 61 340 9.0 18.0 0.00 0.00 0.00 37 1008.4
20260501212548 60 306 4.0 15.0 0.00 0.00 0.00 37 1008.3
20260501212049 61 319 8.0 15.0 0.00 0.00 0.00 34 1008.3
20260501211555 61 352 5.0 13.0 0.00 0.00 0.00 34 1008.2
20260501211048 60 273 5.0 15.0 0.00 0.00 0.00 39 1008.3
20260501210548 60 323 8.0 15.0 0.00 0.00 0.00 40 1008.2
20260501210056 61 307 3.0 14.0 0.00 0.00 0.00 34 1008.2
20260501205548 61 284 5.0 14.0 0.00 0.00 0.00 38 1008.2
20260501205049 61 243 6.0 12.0 0.00 0.00 0.00 37 1008.2
20260501204620 60 293 7.0 16.0 0.00 0.00 0.00 37 1008.2
20260501204048 60 331 4.0 16.0 0.00 0.00 0.00 42 1008.1
20260501203548 61 183 6.0 16.0 0.00 0.00 0.00 37 1008.1
20260501203057 60 262 5.0 16.0 0.00 0.00 0.00 40 1008.1